IFLY324 RJFK-RJFU

Flight info

Callsign IFLY324
Flight time 0h 17m
Altitude 12000
Route SASIK KAZSA OLE
Aircraft B38M/M-SDE1FGHILORVWXY/HB1

Departure

Time 2026-04-26 18:40
Airport Kagoshima Airport (RJFK)

Arrival

Time 2026-04-26 18:57
Airport Nagasaki Airport (RJFU)
Time Latitude Longitude Altitude Speed Heading
2026-04-26 18:25 31.80035 130.71725 942 ft 0 kts 239°
2026-04-26 18:30 31.80040 130.71735 901 ft 2 kts 238°
2026-04-26 18:31 31.80048 130.71751 902 ft 2 kts 239°
2026-04-26 18:31 31.80053 130.71760 902 ft 0 kts 239°
2026-04-26 18:31 31.80052 130.71759 901 ft 0 kts 239°
2026-04-26 18:31 31.80058 130.71771 901 ft 2 kts 239°
2026-04-26 18:32 31.80067 130.71788 901 ft 2 kts 240°
2026-04-26 18:32 31.80075 130.71805 901 ft 2 kts 240°
2026-04-26 18:32 31.80083 130.71821 901 ft 2 kts 241°
2026-04-26 18:32 31.80091 130.71838 901 ft 2 kts 242°
2026-04-26 18:33 31.80098 130.71855 902 ft 2 kts 242°
2026-04-26 18:33 31.80108 130.71871 902 ft 2 kts 169°
2026-04-26 18:33 31.80120 130.71861 902 ft 1 kts 141°
2026-04-26 18:33 31.80122 130.71859 902 ft 0 kts 142°
2026-04-26 18:34 31.80120 130.71861 902 ft 0 kts 142°
2026-04-26 18:35 31.80113 130.71865 902 ft 3 kts 149°
2026-04-26 18:35 31.80086 130.71884 901 ft 7 kts 149°
2026-04-26 18:36 31.80035 130.71919 900 ft 10 kts 149°
2026-04-26 18:36 31.79963 130.71969 899 ft 14 kts 149°
2026-04-26 18:36 31.79867 130.72033 896 ft 18 kts 152°
2026-04-26 18:36 31.79751 130.72111 894 ft 21 kts 150°
2026-04-26 18:37 31.79616 130.72202 891 ft 24 kts 150°
2026-04-26 18:37 31.79462 130.72306 889 ft 27 kts 150°
2026-04-26 18:37 31.79290 130.72422 885 ft 30 kts 149°
2026-04-26 18:37 31.79143 130.72524 883 ft 16 kts 144°
2026-04-26 18:38 31.79140 130.72646 881 ft 12 kts 59°
2026-04-26 18:38 31.79180 130.72712 880 ft 6 kts 24°
2026-04-26 18:38 31.79206 130.72701 881 ft 0 kts 330°
2026-04-26 18:39 31.79207 130.72701 881 ft 2 kts 330°
2026-04-26 18:39 31.79444 130.72544 887 ft 77 kts 330°
2026-04-26 18:39 31.80100 130.72100 903 ft 138 kts 332°
2026-04-26 18:39 31.80980 130.71479 1397 ft 148 kts 330°
2026-04-26 18:40 31.81903 130.70816 1889 ft 166 kts 329°
2026-04-26 18:40 31.82961 130.70093 2365 ft 185 kts 329°
2026-04-26 18:40 31.84163 130.69362 2887 ft 206 kts 339°
2026-04-26 18:40 31.85607 130.68948 3379 ft 227 kts 347°
2026-04-26 18:41 31.87230 130.68539 3874 ft 251 kts 346°
2026-04-26 18:41 31.88994 130.68058 4648 ft 258 kts 345°
2026-04-26 18:41 31.90754 130.67566 5641 ft 268 kts 345°
2026-04-26 18:41 31.92624 130.67032 6354 ft 285 kts 344°
2026-04-26 18:42 31.94564 130.66467 7320 ft 287 kts 343°
2026-04-26 18:42 31.96497 130.65787 8276 ft 292 kts 338°
2026-04-26 18:42 31.98430 130.64986 9261 ft 296 kts 338°
2026-04-26 18:42 32.00389 130.64184 10193 ft 301 kts 338°
2026-04-26 18:43 32.02422 130.63360 10747 ft 319 kts 339°
2026-04-26 18:43 32.04583 130.62490 11249 ft 336 kts 339°
2026-04-26 18:43 32.06840 130.61581 11759 ft 347 kts 338°
2026-04-26 18:43 32.09130 130.60645 11910 ft 351 kts 338°
2026-04-26 18:44 32.11449 130.59696 11943 ft 353 kts 338°
2026-04-26 18:44 32.13769 130.58747 11955 ft 353 kts 339°
2026-04-26 18:44 32.16093 130.57795 11942 ft 353 kts 339°
2026-04-26 18:44 32.18413 130.56846 11980 ft 353 kts 339°
2026-04-26 18:45 32.20733 130.55896 11955 ft 352 kts 339°
2026-04-26 18:45 32.23050 130.54950 11903 ft 351 kts 339°
2026-04-26 18:45 32.25361 130.54001 11986 ft 352 kts 339°
2026-04-26 18:45 32.27649 130.53062 11966 ft 353 kts 339°
2026-04-26 18:46 32.29913 130.51973 11943 ft 350 kts 327°
2026-04-26 18:46 32.31820 130.50222 11979 ft 348 kts 318°
2026-04-26 18:46 32.33687 130.48402 11956 ft 348 kts 318°
2026-04-26 18:46 32.35545 130.46577 11957 ft 347 kts 318°
2026-04-26 18:47 32.37401 130.44745 11963 ft 347 kts 318°
2026-04-26 18:47 32.39209 130.42952 12014 ft 344 kts 318°
2026-04-26 18:47 32.41019 130.41156 12018 ft 331 kts 318°
2026-04-26 18:47 32.42774 130.39413 12000 ft 329 kts 318°
2026-04-26 18:48 32.44524 130.37675 11988 ft 328 kts 318°
2026-04-26 18:48 32.46270 130.35937 11994 ft 328 kts 318°
2026-04-26 18:48 32.48013 130.34200 12007 ft 328 kts 318°
2026-04-26 18:48 32.49754 130.32469 11754 ft 324 kts 318°
2026-04-26 18:49 32.51435 130.30795 11872 ft 305 kts 318°
2026-04-26 18:49 32.53014 130.29222 11938 ft 289 kts 318°
2026-04-26 18:49 32.54527 130.27713 11713 ft 283 kts 318°
2026-04-26 18:49 32.56057 130.26188 11108 ft 292 kts 318°
2026-04-26 18:50 32.57629 130.24620 10517 ft 297 kts 319°
2026-04-26 18:50 32.59227 130.23092 10029 ft 291 kts 321°
2026-04-26 18:50 32.60809 130.21656 9662 ft 282 kts 321°
2026-04-26 18:50 32.62333 130.20265 9316 ft 272 kts 321°
2026-04-26 18:51 32.63802 130.18919 9012 ft 261 kts 321°
2026-04-26 18:51 32.65212 130.17626 8719 ft 251 kts 321°
2026-04-26 18:51 32.66560 130.16388 8282 ft 248 kts 322°
2026-04-26 18:51 32.67931 130.15129 7770 ft 249 kts 322°
2026-04-26 18:52 32.69297 130.13874 7309 ft 248 kts 322°
2026-04-26 18:52 32.70216 130.13029 7007 ft 247 kts 322°
2026-04-26 18:52 32.72002 130.11387 6461 ft 242 kts 322°
2026-04-26 18:52 32.73313 130.10180 6205 ft 236 kts 322°
2026-04-26 18:53 32.74599 130.08995 5945 ft 234 kts 322°
2026-04-26 18:53 32.75881 130.07814 5663 ft 232 kts 322°
2026-04-26 18:53 32.77149 130.06646 5415 ft 230 kts 322°
2026-04-26 18:53 32.78407 130.05483 4991 ft 229 kts 321°
2026-04-26 18:54 32.79592 130.04239 4623 ft 222 kts 319°
2026-04-26 18:54 32.80726 130.03030 4202 ft 217 kts 319°
2026-04-26 18:54 32.81846 130.01841 3705 ft 215 kts 319°
2026-04-26 18:54 32.82974 130.00671 3202 ft 215 kts 319°
2026-04-26 18:55 32.84045 129.99475 2880 ft 205 kts 317°
2026-04-26 18:55 32.84711 129.98717 2565 ft 195 kts 318°
2026-04-26 18:55 32.85693 129.97669 1932 ft 187 kts 321°
2026-04-26 18:55 32.86681 129.96662 1225 ft 185 kts 320°
2026-04-26 18:56 32.87592 129.95682 882 ft 168 kts 319°
2026-04-26 18:56 32.88427 129.94806 627 ft 150 kts 320°
2026-04-26 18:56 32.89176 129.94010 437 ft 141 kts 319°
2026-04-26 18:56 32.89896 129.93247 271 ft 137 kts 320°
2026-04-26 18:57 32.90611 129.92504 93 ft 138 kts 317°
2026-04-26 18:57 32.91079 129.91996 19 ft 127 kts 319°
2026-04-26 18:57 32.91660 129.91382 17 ft 59 kts 318°
2026-04-26 18:57 32.91887 129.91140 17 ft 13 kts 317°
2026-04-26 18:58 32.91967 129.91108 19 ft 14 kts 30°
2026-04-26 18:58 32.92037 129.91199 15 ft 9 kts 68°
2026-04-26 18:58 32.92018 129.91274 17 ft 11 kts 136°
2026-04-26 18:58 32.91948 129.91350 13 ft 16 kts 137°
2026-04-26 18:59 32.91898 129.91403 14 ft 7 kts 139°
2026-04-26 18:59 32.91857 129.91446 15 ft 9 kts 139°
2026-04-26 18:59 32.91810 129.91496 14 ft 10 kts 138°
2026-04-26 18:59 32.91752 129.91558 15 ft 13 kts 138°
2026-04-26 19:00 32.91681 129.91634 15 ft 15 kts 138°
2026-04-26 19:00 32.91603 129.91718 17 ft 15 kts 138°
2026-04-26 19:00 32.91519 129.91809 18 ft 18 kts 137°
2026-04-26 19:00 32.91422 129.91913 19 ft 20 kts 137°
2026-04-26 19:01 32.91367 129.91972 19 ft 8 kts 132°
2026-04-26 19:01 32.91357 129.92049 17 ft 11 kts 61°
2026-04-26 19:01 32.91397 129.92101 18 ft 3 kts 47°
2026-04-26 19:01 32.91406 129.92113 18 ft 0 kts 47°
2026-04-26 19:02 32.91411 129.92120 18 ft 2 kts 47°
2026-04-26 19:02 32.91424 129.92137 20 ft 0 kts 47°
2026-04-26 19:02 32.91425 129.92138 20 ft 0 kts 47°